Torna al catalogo

HJS-7A

AttivoScienzaLEO
NORAD 65617·PAYLOAD·🇨🇳 China

Lanciato Sep 16, 2025 da Jiuquan Satellite Launch Center

Loading…

Prossimi Passaggi (prossime 24 ore)

TLE

AggiornatoSource: Space-Track

Epoca: Sep 14, 2026, 15:00 UTC

1 65617U 25209A   26257.62519097 -.00000106  00000-0  40529-4 0  9996
2 65617  50.0004  31.6190 0000470  95.6505 264.4426 13.41421071 49675

Traccia HJS-7A in tempo reale con AllMySat

Download on the App Store